Temp
95 94 79 79 79 79 79 79 79 78 78 78 78 78 78 77 77 77 77 77 77 77 78 78 78 79 79 80 79 79 79 79 81 82 82 81 81 80 80 80 81 87 79
99 96 79 79 79 79 79 79 79 78 78 78 78 78 77 77 77 77 77 77 77 77 78 78 79 79 79 79 79 79 79 79 80 80 81 81 81 80 79 80 80 82 79
96 96 89 79 79 79 79 79 78 78 78 78 78 78 77 77 77 77 77 77 77 77 78 78 78 79 79 79 79 79 79 79 79 79 81 85 87 80 79 79 80 79 78
96 94 94 78 78 79 79 78 78 78 78 78 78 78 77 77 77 77 77 77 77 77 78 78 78 78 79 79 79 79 78 78 78 79 80 85 85 80 79 78 79 79 78
95 96 92 79 78 79 79 78 78 78 78 78 78 78 77 77 77 76 76 76 76 77 78 78 78 78 79 79 79 79 78 77 77 79 79 78 76 78 77 78 77 77 77
98 98 84 79 77 78 78 78 78 78 78 78 78 77 77 77 76 76 75 76 76 77 77 78 78 78 77 79 79 78 78 76 77 81 74 74 78 77 76 76 75 77 77
96 96 94 78 77 77 77 78 77 76 76 76 76 76 76 76 76 76 76 76 76 76 77 77 76 76 76 77 78 78 78 76 81 77 74 72 74 74 75 74 74 74 75
93 91 91 80 78 75 74 73 73 74 74 74 74 74 74 74 74 75 76 76 75 75 76 76 76 76 76 76 77 77 77 76 80 77 75 73 73 74 74 73 74 74 75
92 91 90 89 85 77 76 74 73 72 72 72 72 72 72 73 73 74 74 75 75 75 75 76 76 76 75 76 76 77 77 77 79 77 72 70 73 73 73 73 73 76 75
93 93 90 89 90 86 85 77 75 72 72 71 71 71 72 72 72 72 73 74 74 74 75 75 75 75 75 75 75 76 76 77 79 73 73 71 73 74 74 76 75 75 76
93 92 91 90 86 84 84 84 76 75 74 74 74 73 72 73 77 78 76 75 75 73 75 73 75 75 75 74 74 76 76 82 78 73 74 74 73 74 74 75 75 75 76
90 90 90 86 82 81 84 83 82 81 78 76 75 72 73 74 75 76 73 73 73 73 74 74 73 74 75 81 81 76 81 83 77 77 79 74 74 74 74 73 75 75 76
88 89 88 83 81 80 82 82 81 81 75 73 72 70 70 71 75 73 74 78 76 73 76 76 77 78 80 81 81 82 84 84 77 77 78 74 74 72 73 74 73 75 76
86 85 85 83 80 79 80 81 82 79 76 76 72 72 71 72 71 70 73 74 74 77 76 73 77 80 80 78 81 82 85 84 78 77 76 74 74 74 72 72 72 72 74
84 84 83 81 79 78 76 75 76 72 73 78 78 77 74 72 70 72 72 69 75 75 72 70 78 78 79 78 81 76 85 84 79 76 74 74 73 72 72 72 73 75 74
83 82 82 81 79 79 74 73 71 73 72 72 80 77 74 74 72 72 69 71 72 70 69 73 77 78 77 76 78 77 84 82 79 77 75 75 72 73 73 73 73 74 74
83 82 80 80 80 78 74 76 74 74 73 76 74 76 77 75 71 71 71 70 69 72 73 75 71 79 76 75 77 77 84 80 77 76 75 76 72 72 72 72 72 73 73
81 80 80 82 80 80 78 78 76 75 74 72 74 70 72 75 74 71 72 71 70 71 69 72 79 78 77 74 72 76 81 77 76 76 75 73 75 72 72 71 72 73 75
81 79 78 79 79 78 78 79 76 75 72 70 67 65 70 73 75 72 70 72 73 70 72 75 76 77 74 72 75 73 79 74 75 74 74 73 73 68 68 69 70 72 74
81 80 78 80 79 77 78 70 77 73 73 71 71 67 71 72 74 74 72 72 73 72 74 72 71 71 76 72 78 71 76 73 73 70 67 70 67 67 68 68 67 68 73
80 79 78 77 78 77 77 75 73 71 76 75 71 68 70 72 74 74 71 72 72 71 72 73 74 74 69 72 74 69 70 72 68 69 67 68 70 67 67 66 67 67 71
79 79 78 78 78 77 79 76 76 73 74 75 72 71 72 74 72 72 73 75 75 73 71 73 72 67 66 72 73 64 60 64 65 67 67 68 68 67 66 67 67 68 70
79 78 79 78 77 77 77 78 76 75 74 70 71 73 70 72 74 73 74 76 76 76 72 71 74 75 72 72 75 65 59 58 61 64 66 70 67 66 65 66 67 67 67
80 81 80 79 78 78 77 78 73 70 67 70 70 70 68 73 72 73 73 75 76 77 73 74 73 74 74 70 69 72 74 69 59 58 63 64 64 65 65 65 66 66 67
81 80 80 79 78 78 77 76 74 71 70 69 68 69 69 69 71 73 72 74 74 74 74 74 73 73 74 75 69 68 68 65 65 60 57 59 63 64 65 65 66 66 67
82 81 80 79 77 78 79 77 75 72 70 68 65 67 70 67 67 72 72 71 73 73 73 72 74 72 72 71 70 67 65 65 61 63 58 59 59 60 64 65 65 66 66
MSLP
1009.48 1010.21 1011.79 1012.29 1012.86 1013.22 1013.44 1013.78 1014.09 1014.23 1014.35 1014.54 1014.60 1014.67 1014.81 1014.73 1014.96 1015.06 1015.10 1014.92 1014.82 1014.74 1014.61 1014.54 1014.54 1014.39 1014.30 1014.13 1013.99 1013.87 1013.62 1013.78 1013.80 1013.71 1013.65 1013.62 1013.73 1014.20 1014.43 1014.41 1014.63 1014.55 1015.54
1009.12 1009.93 1011.72 1012.31 1012.75 1013.03 1013.25 1013.45 1013.71 1013.93 1014.16 1014.33 1014.40 1014.49 1014.66 1014.74 1014.79 1014.75 1014.81 1014.79 1014.68 1014.54 1014.34 1014.35 1014.33 1014.31 1014.17 1014.10 1013.94 1013.85 1013.74 1013.67 1013.80 1013.95 1013.89 1014.07 1014.35 1014.43 1014.69 1014.74 1014.76 1015.11 1015.92
1009.42 1009.88 1011.21 1012.30 1012.61 1012.74 1012.88 1013.10 1013.40 1013.70 1013.93 1013.99 1014.10 1014.25 1014.39 1014.50 1014.48 1014.42 1014.49 1014.45 1014.39 1014.31 1014.26 1014.23 1014.14 1014.17 1014.07 1013.98 1013.85 1013.79 1013.70 1013.58 1013.83 1013.99 1014.13 1013.99 1014.08 1014.66 1015.04 1015.25 1015.30 1015.54 1016.45
1009.56 1010.22 1010.43 1011.64 1012.10 1012.37 1012.59 1012.84 1013.06 1013.29 1013.49 1013.64 1013.75 1013.90 1014.00 1014.06 1014.08 1014.10 1014.14 1014.22 1014.21 1014.07 1014.09 1014.07 1013.99 1014.01 1013.94 1013.86 1013.79 1013.66 1013.68 1013.70 1013.73 1014.01 1014.17 1013.96 1014.40 1014.87 1015.35 1015.58 1015.84 1016.25 1016.84
1009.65 1009.87 1010.52 1011.62 1012.13 1012.33 1012.45 1012.54 1012.75 1012.91 1013.07 1013.20 1013.28 1013.35 1013.45 1013.59 1013.66 1013.80 1013.84 1013.92 1014.00 1013.87 1013.79 1013.85 1013.80 1013.81 1013.74 1013.73 1013.72 1013.52 1013.65 1013.74 1013.79 1013.96 1014.36 1014.53 1014.84 1015.17 1015.63 1016.06 1016.31 1016.65 1016.87
1009.23 1009.50 1010.69 1011.45 1011.95 1012.27 1012.34 1012.41 1012.59 1012.72 1012.80 1012.94 1012.97 1012.97 1013.01 1013.08 1013.21 1013.43 1013.58 1013.63 1013.65 1013.69 1013.66 1013.66 1013.58 1013.50 1013.59 1013.51 1013.55 1013.48 1013.45 1013.58 1013.71 1013.81 1014.32 1014.94 1015.14 1015.36 1015.84 1016.30 1016.67 1017.04 1017.12
1009.40 1009.69 1010.11 1011.42 1011.85 1012.17 1012.29 1012.33 1012.47 1012.52 1012.65 1012.75 1012.81 1012.80 1012.77 1012.78 1012.84 1012.94 1013.02 1013.11 1013.22 1013.33 1013.34 1013.40 1013.50 1013.41 1013.43 1013.37 1013.31 1013.36 1013.39 1013.52 1013.27 1013.76 1014.45 1014.86 1015.46 1015.79 1016.01 1016.65 1017.26 1017.46 1017.80
1009.65 1010.16 1010.37 1011.33 1011.78 1012.12 1012.34 1012.44 1012.49 1012.55 1012.75 1012.76 1012.67 1012.65 1012.67 1012.62 1012.52 1012.51 1012.44 1012.48 1012.74 1012.91 1012.96 1013.07 1013.18 1013.22 1013.24 1013.22 1013.23 1013.23 1013.28 1013.35 1013.27 1013.77 1014.45 1014.92 1015.20 1015.57 1016.45 1017.06 1017.51 1017.61 1017.84
1009.72 1010.06 1010.35 1010.77 1011.20 1011.62 1011.71 1011.99 1012.25 1012.55 1012.65 1012.58 1012.50 1012.48 1012.40 1012.27 1012.13 1012.02 1011.94 1011.84 1012.11 1012.42 1012.60 1012.76 1012.92 1013.04 1013.07 1013.06 1013.11 1013.16 1013.20 1013.19 1013.25 1013.68 1014.51 1015.15 1015.54 1015.71 1016.23 1017.16 1017.31 1017.55 1017.71
1009.31 1009.45 1009.97 1010.21 1010.33 1010.74 1010.96 1011.55 1011.83 1012.20 1012.35 1012.35 1012.25 1012.09 1012.01 1011.98 1011.78 1011.59 1011.48 1011.41 1011.68 1012.06 1012.24 1012.47 1012.67 1012.84 1012.90 1012.93 1012.92 1013.07 1013.12 1013.10 1013.19 1013.82 1014.34 1014.91 1015.59 1015.81 1016.10 1016.80 1017.16 1017.36 1017.54
1008.64 1009.08 1009.51 1009.96 1010.52 1010.82 1010.80 1010.82 1011.34 1011.36 1011.59 1011.68 1011.60 1011.48 1011.64 1011.33 1010.58 1010.38 1010.49 1010.65 1011.14 1011.72 1011.91 1012.34 1012.40 1012.58 1012.71 1012.75 1012.79 1012.94 1013.04 1012.54 1013.10 1013.68 1014.31 1014.73 1015.07 1015.56 1016.08 1016.47 1017.00 1017.26 1017.44
1008.24 1008.78 1009.47 1010.11 1010.85 1010.97 1010.60 1010.37 1010.48 1010.50 1011.16 1011.38 1011.43 1011.56 1011.23 1010.92 1010.70 1010.39 1010.58 1010.67 1011.01 1011.40 1011.72 1011.95 1012.34 1012.37 1012.50 1011.81 1012.08 1012.77 1012.48 1012.02 1013.03 1013.40 1013.68 1014.54 1015.21 1015.19 1016.17 1016.64 1017.06 1017.19 1017.47
1008.54 1008.88 1009.45 1010.31 1010.72 1010.90 1010.48 1010.33 1010.39 1010.24 1011.12 1011.41 1011.24 1011.26 1011.22 1011.04 1010.27 1010.13 1010.13 1009.98 1010.51 1011.03 1011.23 1011.46 1011.74 1011.79 1011.42 1011.11 1011.39 1011.56 1011.62 1011.69 1012.92 1013.31 1013.55 1014.57 1015.26 1015.53 1016.29 1017.03 1017.22 1017.46 1017.70
1008.59 1009.18 1009.71 1010.14 1010.59 1010.74 1010.62 1010.29 1009.91 1010.35 1010.74 1010.52 1010.64 1010.69 1010.72 1010.42 1010.19 1010.32 1010.18 1009.78 1009.74 1009.80 1010.26 1010.99 1010.70 1010.50 1010.76 1011.04 1010.82 1010.87 1010.96 1011.15 1012.66 1013.22 1013.72 1014.42 1015.12 1015.66 1016.39 1017.26 1017.83 1017.92 1018.01
1008.83 1009.29 1009.76 1010.21 1010.40 1010.61 1010.66 1010.66 1010.46 1010.89 1010.64 1009.63 1009.68 1009.61 1010.12 1010.18 1010.14 1010.09 1009.78 1009.79 1009.35 1009.50 1010.01 1010.80 1010.25 1010.11 1010.46 1011.01 1010.65 1010.97 1010.67 1010.84 1012.24 1012.98 1013.57 1014.15 1015.08 1015.93 1016.32 1017.19 1018.11 1018.01 1018.16
1009.08 1009.37 1009.76 1010.04 1010.19 1010.21 1010.57 1010.61 1010.60 1010.38 1010.34 1009.88 1009.01 1009.44 1009.70 1009.77 1009.82 1009.80 1009.84 1009.67 1009.63 1009.67 1009.88 1010.41 1010.08 1009.90 1010.67 1011.10 1010.56 1010.65 1010.39 1011.18 1012.18 1012.86 1013.33 1014.15 1015.24 1015.70 1016.11 1017.07 1017.81 1018.09 1018.20
1008.99 1009.40 1009.69 1009.85 1009.85 1009.98 1010.12 1010.11 1010.25 1010.04 1009.89 1009.55 1009.10 1009.15 1009.02 1009.28 1009.63 1009.58 1009.42 1009.45 1009.51 1009.53 1009.70 1009.55 1009.89 1009.81 1010.61 1010.76 1010.59 1010.67 1010.62 1011.47 1012.33 1012.75 1013.28 1013.94 1015.18 1015.70 1016.59 1017.01 1017.57 1017.97 1018.37
1009.02 1009.22 1009.65 1009.64 1009.65 1009.53 1009.67 1009.57 1009.66 1009.45 1009.52 1009.57 1009.13 1009.40 1009.31 1009.06 1009.11 1009.38 1009.20 1009.26 1009.41 1009.64 1009.69 1009.45 1009.24 1009.61 1009.97 1010.48 1010.60 1010.54 1010.84 1012.02 1012.47 1012.84 1013.36 1014.18 1015.04 1015.88 1016.36 1017.19 1017.24 1017.96 1018.19
1008.93 1009.22 1009.46 1009.63 1009.48 1009.60 1009.45 1009.19 1009.29 1009.35 1009.32 1009.44 1009.47 1009.56 1009.35 1008.97 1008.73 1008.96 1009.07 1009.19 1009.21 1009.59 1009.17 1008.88 1009.09 1009.37 1010.10 1010.31 1010.31 1010.44 1011.33 1012.39 1012.63 1012.97 1013.52 1014.47 1015.23 1016.14 1017.01 1017.27 1017.55 1018.39 1018.51
1008.83 1009.24 1009.42 1009.43 1009.46 1009.63 1009.11 1009.16 1008.90 1009.22 1009.15 1009.08 1009.19 1009.38 1009.14 1008.78 1008.51 1008.40 1008.67 1009.04 1009.33 1009.49 1009.20 1008.96 1009.17 1009.55 1009.87 1010.15 1010.24 1011.29 1011.82 1012.70 1012.94 1013.22 1014.14 1014.84 1015.74 1016.60 1017.27 1017.66 1018.43 1019.09 1018.72
1008.76 1009.04 1009.13 1009.27 1009.40 1009.45 1008.82 1008.83 1008.80 1008.99 1008.39 1008.65 1009.06 1009.20 1008.92 1008.60 1008.23 1008.24 1008.64 1008.87 1009.20 1009.53 1009.49 1009.40 1009.43 1009.89 1009.97 1009.96 1010.61 1011.79 1012.59 1013.10 1013.58 1014.08 1014.68 1015.22 1015.95 1017.04 1017.77 1018.04 1018.84 1019.18 1018.75
1008.36 1008.72 1008.96 1009.02 1009.20 1009.24 1008.72 1008.94 1008.91 1009.05 1008.83 1008.71 1008.71 1008.66 1008.33 1007.99 1008.32 1008.39 1008.45 1008.35 1008.65 1009.26 1009.57 1009.56 1009.77 1009.87 1010.06 1010.38 1010.74 1012.09 1012.84 1013.73 1014.07 1014.42 1014.92 1015.64 1016.60 1017.14 1017.86 1018.53 1019.18 1019.37 1019.07
1008.12 1008.52 1008.67 1008.91 1009.13 1009.17 1009.04 1008.70 1008.86 1008.93 1008.78 1008.88 1008.54 1008.18 1008.50 1008.22 1007.97 1008.32 1008.42 1008.14 1008.55 1008.80 1009.40 1009.79 1009.71 1009.55 1009.86 1010.68 1011.13 1011.92 1012.66 1013.24 1013.88 1014.99 1015.50 1016.09 1016.95 1017.43 1017.95 1018.66 1019.34 1019.74 1019.91
1007.71 1008.27 1008.55 1008.75 1008.90 1008.99 1009.01 1008.53 1008.79 1008.86 1008.74 1008.66 1008.70 1008.62 1008.53 1008.34 1008.35 1008.28 1008.42 1008.45 1008.50 1008.27 1008.95 1009.49 1009.95 1010.10 1010.13 1010.93 1011.89 1011.99 1012.10 1013.05 1014.23 1015.18 1016.17 1016.81 1017.29 1017.63 1018.31 1019.07 1019.42 1019.90 1020.28
1007.46 1008.07 1008.37 1008.59 1008.80 1009.00 1009.09 1008.92 1008.59 1008.76 1008.86 1008.90 1008.85 1008.87 1008.71 1008.50 1008.44 1008.35 1008.54 1008.59 1008.59 1008.88 1009.05 1009.55 1009.96 1010.23 1010.27 1010.59 1011.61 1012.18 1012.81 1013.78 1014.31 1015.12 1016.20 1017.08 1017.62 1018.48 1018.54 1018.91 1019.61 1020.01 1020.76
1007.27 1007.78 1008.21 1008.43 1008.73 1008.85 1008.76 1008.98 1008.85 1008.99 1008.94 1008.84 1008.98 1009.06 1008.95 1008.95 1008.78 1008.60 1008.67 1008.86 1008.95 1009.10 1009.18 1009.64 1009.95 1010.46 1010.70 1011.50 1011.87 1012.44 1012.85 1013.45 1014.67 1015.47 1016.47 1017.46 1018.06 1018.47 1018.99 1019.24 1019.88 1020.38 1020.80
Wind_Speed
4 16 17 15 14 13 11 11 12 12 11 11 10 9 9 9 10 9 9 9 8 10 10 9 10 11 11 10 10 12 9 10 9 6 2 3 6 10 10 12 13 13 14
5 14 17 14 13 13 12 12 13 12 13 12 11 11 10 10 11 11 11 10 10 10 11 11 10 12 11 11 9 10 11 11 9 8 8 8 9 11 10 10 11 18 14
4 6 13 13 13 13 13 13 12 11 12 11 11 12 12 12 12 13 13 11 11 12 12 11 12 12 12 11 9 9 9 9 9 10 9 8 10 11 11 6 16 17 13
3 2 5 17 15 14 13 12 12 12 11 10 11 13 13 13 14 14 14 13 13 13 13 13 13 13 12 12 10 8 8 8 10 11 6 9 8 13 12 12 13 14 13
3 6 7 11 9 11 12 11 11 10 10 11 11 13 14 15 15 16 16 16 14 15 15 14 14 13 15 12 11 8 8 9 14 11 10 6 4 11 14 15 13 13 14
5 1 14 10 5 7 9 11 11 10 11 12 14 14 15 17 17 18 17 18 16 15 15 15 14 12 15 13 12 9 8 8 12 12 5 8 8 18 18 15 12 8 8
5 6 4 8 3 4 7 7 8 7 9 11 13 14 16 17 17 18 19 19 19 16 16 15 12 11 12 14 12 10 8 7 11 9 9 9 12 17 19 17 13 9 9
4 3 4 8 7 5 3 1 4 6 8 10 12 13 15 18 19 19 20 21 19 18 17 15 13 11 11 12 13 9 8 8 12 10 13 11 16 22 20 19 19 16 15
0 3 3 6 2 12 9 6 1 6 10 11 13 14 15 17 18 18 19 20 18 20 17 15 15 12 11 11 13 10 9 10 8 8 10 8 19 23 26 24 23 21 18
7 5 5 6 7 6 9 9 4 6 10 11 13 15 15 15 17 19 19 18 16 19 18 17 15 13 10 11 11 9 9 10 9 9 9 9 22 23 22 23 21 19 19
4 5 6 6 7 8 9 8 5 12 11 10 11 11 11 9 12 10 13 13 16 18 14 14 14 12 9 10 10 10 9 7 9 7 7 22 26 26 23 22 22 19 18
4 5 6 4 6 8 8 7 8 7 4 8 8 9 8 9 9 11 5 6 12 16 15 14 12 12 10 9 8 11 8 9 7 8 8 24 21 23 21 18 16 17 19
5 5 7 4 5 7 7 6 6 2 4 5 7 7 6 7 8 5 6 8 8 15 10 12 11 10 12 9 9 11 11 9 6 6 13 24 23 22 17 16 14 16 16
4 5 5 4 4 5 6 7 7 5 5 7 6 8 6 6 5 4 6 8 6 8 11 7 8 9 12 8 12 11 13 10 6 5 13 22 22 25 23 13 13 13 16
3 5 5 5 5 5 5 6 6 4 7 6 7 4 6 6 5 5 5 6 7 6 7 7 10 7 8 9 11 7 13 12 10 6 7 24 20 24 23 23 19 16 15
1 3 5 6 5 5 5 7 5 5 8 7 3 4 4 6 4 6 6 6 7 4 5 9 10 7 6 10 8 8 9 9 9 9 8 14 25 26 25 26 23 19 20
3 1 4 5 4 4 8 8 6 6 6 6 6 5 6 5 7 6 4 6 7 7 9 10 7 8 9 9 8 7 8 8 7 9 9 11 16 24 25 20 22 22 23
3 2 3 4 6 6 8 6 5 5 5 5 4 4 9 8 8 5 5 3 6 6 8 8 9 9 10 8 5 6 5 6 8 10 11 9 11 10 14 14 22 21 24
4 3 3 4 6 7 8 5 4 5 4 2 2 2 8 10 9 6 5 5 7 6 7 7 9 9 7 5 6 2 8 5 7 8 12 13 12 8 7 13 13 13 21
4 4 2 4 5 7 9 1 3 3 3 2 2 2 8 6 8 7 6 7 7 6 7 4 5 5 9 6 8 7 7 5 6 8 10 10 10 9 5 6 7 10 21
5 5 3 3 4 5 7 6 3 4 2 1 2 6 7 8 9 5 5 7 8 7 7 7 5 9 5 6 5 6 5 7 8 9 10 9 13 9 7 7 3 4 13
6 4 3 1 3 4 5 4 4 3 5 4 4 3 3 4 4 4 7 9 10 7 8 8 8 6 3 3 8 4 4 4 6 8 9 10 11 8 7 7 5 7 8
7 6 4 1 3 4 3 1 3 2 1 2 5 5 3 3 5 5 7 6 8 9 8 8 7 6 6 5 11 4 3 2 5 6 10 10 10 7 6 7 8 9 8
8 7 5 3 1 4 7 4 3 3 4 2 3 5 3 3 4 5 7 8 9 8 9 8 7 7 9 9 6 4 5 9 3 6 6 8 8 8 8 6 8 9 8
8 8 5 5 4 3 5 7 5 6 4 3 2 4 7 5 4 4 7 8 8 3 7 9 8 9 6 10 5 8 10 7 5 4 8 7 6 6 6 6 7 9 10
9 9 6 6 4 1 4 5 5 6 6 6 5 4 5 5 3 4 8 6 7 7 9 8 9 9 9 8 7 7 8 6 7 6 8 8 7 4 5 5 8 6 4
Wind_Direction
151 127 164 174 181 190 198 210 221 226 231 238 242 252 271 298 310 310 306 299 285 280 274 257 260 264 267 273 290 301 288 246 248 228 216 125 119 134 140 152 161 125 127
99 134 162 174 186 199 209 216 226 231 234 237 241 246 257 277 292 301 301 296 288 279 272 258 251 255 261 266 279 299 286 244 227 207 180 169 168 162 161 178 191 116 127
83 123 164 176 197 210 215 223 232 240 243 244 241 243 245 257 276 288 292 292 288 279 273 269 247 245 255 261 268 295 294 233 217 195 183 204 183 176 167 173 124 117 132
132 144 272 169 195 212 223 230 236 243 249 254 249 248 248 254 266 277 282 284 282 273 267 266 260 247 244 253 261 281 299 236 199 186 209 203 207 164 149 123 114 128 142
216 188 149 160 200 224 237 244 250 263 268 275 274 265 266 269 271 275 273 271 273 268 261 259 260 255 245 245 252 260 289 232 207 191 190 230 167 134 128 136 137 146 149
256 224 125 133 171 236 253 257 261 274 281 286 284 278 277 275 276 276 271 266 259 259 260 258 270 258 252 242 248 250 272 259 197 195 176 134 135 134 128 118 107 131 134
304 346 58 119 132 267 278 284 295 318 303 292 285 284 286 285 279 273 266 260 255 246 247 252 257 273 260 257 244 244 256 251 209 175 157 148 151 140 134 131 138 147 172
347 3 308 132 161 138 115 66 332 322 302 294 289 284 283 281 279 274 270 257 245 241 236 244 253 264 266 258 261 241 245 248 205 169 161 147 152 144 144 149 159 172 196
235 228 288 298 253 196 200 177 217 304 299 296 293 286 278 276 274 271 268 256 236 232 231 236 249 255 270 257 248 251 245 243 214 175 155 152 156 155 154 167 180 182 189
195 256 318 268 297 302 296 181 204 279 288 293 293 285 283 282 270 264 260 251 238 227 227 228 240 248 261 254 243 243 250 232 198 160 143 157 166 164 169 173 177 184 179
266 259 284 317 332 311 292 285 205 239 237 270 276 269 272 270 272 264 260 243 222 220 217 226 240 242 253 244 237 230 248 209 199 167 166 168 172 174 175 178 174 179 175
282 338 319 324 316 302 284 284 277 285 321 300 297 295 289 289 285 283 292 233 230 213 217 217 241 242 238 230 201 216 229 193 195 179 167 171 173 159 181 172 169 178 170
345 308 351 324 293 297 309 314 289 340 329 268 270 257 254 258 267 252 268 206 208 209 215 204 217 229 224 217 225 193 211 178 190 178 155 171 175 143 153 165 169 172 170
351 322 333 317 296 290 307 310 312 335 296 242 237 231 260 254 265 266 250 233 221 198 199 204 226 202 227 198 219 216 209 160 177 174 169 173 165 154 155 154 187 181 183
299 342 320 330 305 296 311 295 313 292 271 291 266 240 255 295 291 286 269 254 232 208 175 187 227 221 165 210 221 252 206 161 179 179 165 170 166 155 158 162 195 183 174
321 309 330 312 306 314 299 289 265 275 264 259 266 277 271 255 261 271 262 236 233 217 196 180 218 201 183 213 210 243 195 153 191 188 169 170 158 161 163 171 192 198 179
256 283 319 265 302 281 242 262 286 281 265 292 315 316 253 247 259 267 254 206 205 194 200 195 204 163 184 216 198 218 197 158 200 185 163 157 166 166 171 181 191 189 178
254 285 302 323 324 334 311 303 284 287 281 288 289 300 310 274 254 242 243 209 188 184 200 183 183 172 179 195 199 199 155 169 198 174 154 147 155 157 157 187 177 182 170
210 244 314 346 316 332 307 289 295 306 279 257 237 252 275 273 251 224 214 199 179 187 222 174 181 171 178 192 196 164 130 178 184 171 144 140 146 128 133 164 155 183 176
199 207 254 307 321 335 289 190 357 327 280 242 168 242 279 263 259 231 225 183 182 185 222 204 150 147 176 166 189 124 135 157 152 137 130 124 119 123 141 145 168 198 177
199 213 232 345 326 334 305 345 23 353 31 193 244 245 261 264 252 225 193 163 170 177 197 170 164 173 214 127 131 95 120 150 120 118 127 121 127 119 134 123 143 213 177
187 188 188 298 354 325 11 355 352 354 30 36 34 5 293 175 215 212 187 176 177 164 172 180 179 187 133 152 138 101 133 136 113 122 125 124 128 130 130 143 178 216 190
187 176 157 90 44 5 2 275 48 330 251 295 347 59 22 240 152 171 183 200 167 169 172 178 184 153 144 141 151 121 127 162 117 108 125 125 124 117 112 131 152 158 146
174 164 150 122 77 102 1 24 1 340 326 25 11 346 12 96 112 180 193 176 191 210 139 172 176 181 166 158 144 195 143 133 118 126 104 106 105 117 129 138 144 128 126
163 161 157 145 115 91 55 13 16 26 13 354 45 25 31 38 44 132 180 200 204 177 171 168 173 176 185 150 147 130 105 87 87 106 127 120 99 117 118 131 143 148 167
173 160 164 147 129 137 59 46 32 34 16 27 55 34 54 38 64 119 143 171 185 185 167 175 164 153 135 130 143 125 121 128 126 134 116 118 105 49 112 139 159 140 145